User: anonymous   Login
Location: Newark
(52.3500°N, 175.9667°E)
Time: 02:25:37
(UTC+00:00)
Language:

S-56A Canister/Altair - Orbit

View from above orbital plane
View from above orbital plane
View from above satellite
View from above satellite

Ground track
Ground track

The orbit data is extracted from the following two-line orbital elements,

1 00082U 61004B   22330.55515886  .00000064  00000-0  10647-3 0  9995
2 00082  38.8509 135.3068 1168474  68.7607 303.3737 12.26049060917302
Epoch (UTC): 26 November 2022 13:19:25
Eccentricity: 0.1168474
inclination: 38.8509°
perigee height: 638 km
apogee height: 2494 km
right ascension of ascending node: 135.3068°
argument of perigee: 68.7607°
revolutions per day: 12.26049060
mean anomaly at epoch: 303.3737°
orbit number at epoch: 91730

The dashed part of the orbit path shows where the satellite is in the earth's shadow,  

DLR